BEIDOU-2 IGSO-3

Last updated on Thu Jul 03 2025 00:02:45 GMT+0000 (Coordinated Universal Time)

1 37384U 11013A 25183.49235730 -.00000188 00000+0 00000+0 0 9999 2 37384 61.9065 43.4602 0031202 176.3788 345.4015 1.00263060 52154
UTC large
Height (km)
Speed (km/s)
/
Latitude / Longitude
Inclination (degrees)
Orbital Period (minutes)
Azimuth
Elevation
Range (km)
Doppler Factor

Next 0 passes for location: London (51.5072 / 0.1276)

Sorry there are no passes over London.